Time,TemperatureF,DewpointF,PressureIn,WindDirection,WindDirectionDegrees,WindSpeedMPH,WindSpeedGustMPH,Humidity,HourlyPrecipIn,Conditions,Clouds,dailyrainin,SoftwareType,DateUTC
2013-03-12 00:02:00,25.0,24.0,30.02,NW,306,21.0,-999.0,94,-99.99,,,-99.99,,2013-03-12 05:02:00,
2013-03-12 00:12:00,25.0,24.0,30.02,NW,306,21.0,-999.0,94,-99.99,,,-99.99,,2013-03-12 05:12:00,
2013-03-12 00:22:00,24.0,23.0,30.02,WNW,290,22.0,-999.0,94,-99.99,,,-99.99,,2013-03-12 05:22:00,
2013-03-12 00:32:00,23.0,22.0,30.03,WNW,299,22.0,-999.0,94,-99.99,,,-99.99,,2013-03-12 05:32:00,
2013-03-12 00:42:00,23.0,22.0,30.03,WNW,299,22.0,-999.0,94,-99.99,,,-99.99,,2013-03-12 05:42:00,
2013-03-12 00:52:00,23.0,22.0,30.03,WNW,299,22.0,-999.0,94,-99.99,,,-99.99,,2013-03-12 05:52:00,
2013-03-12 01:02:00,23.0,22.0,30.03,WNW,299,22.0,-999.0,94,-99.99,,,-99.99,,2013-03-12 06:02:00,
2013-03-12 07:22:00,19.0,17.0,30.23,NW,309,13.0,-999.0,92,-99.99,,,-99.99,,2013-03-12 12:22:00,
2013-03-12 07:32:00,19.0,17.0,30.24,NW,315,13.0,-999.0,91,-99.99,,,-99.99,,2013-03-12 12:32:00,
2013-03-12 07:42:00,19.0,17.0,30.24,NW,315,13.0,-999.0,91,-99.99,,,-99.99,,2013-03-12 12:42:00,
2013-03-12 07:52:00,18.0,16.0,30.24,NW,304,13.0,-999.0,91,-99.99,,,-99.99,,2013-03-12 12:52:00,
2013-03-12 08:02:00,18.0,16.0,30.24,NW,304,13.0,-999.0,91,-99.99,,,-99.99,,2013-03-12 13:02:00,
2013-03-12 08:12:00,18.0,16.0,30.24,NW,304,13.0,-999.0,91,-99.99,,,-99.99,,2013-03-12 13:12:00,
2013-03-12 08:22:00,18.0,16.0,30.26,NNW,328,12.0,-999.0,91,-99.99,,,-99.99,,2013-03-12 13:22:00,
2013-03-12 08:32:00,18.0,16.0,30.27,NW,311,11.0,-999.0,90,-99.99,,,-99.99,,2013-03-12 13:32:00,
2013-03-12 08:42:00,18.0,16.0,30.27,NW,311,11.0,-999.0,90,-99.99,,,-99.99,,2013-03-12 13:42:00,
2013-03-12 08:52:00,17.0,15.0,30.27,NW,311,12.0,-999.0,90,-99.99,,,-99.99,,2013-03-12 13:52:00,
2013-03-12 09:02:00,17.0,15.0,30.28,NW,318,12.0,-999.0,90,-99.99,,,-99.99,,2013-03-12 14:02:00,
2013-03-12 09:12:00,17.0,15.0,30.28,NW,318,12.0,-999.0,90,-99.99,,,-99.99,,2013-03-12 14:12:00,
2013-03-12 09:22:00,17.0,15.0,30.29,NW,315,13.0,-999.0,90,-99.99,,,-99.99,,2013-03-12 14:22:00,
2013-03-12 09:32:00,16.0,14.0,30.29,NW,319,14.0,-999.0,90,-99.99,,,-99.99,,2013-03-12 14:32:00,
2013-03-12 09:42:00,16.0,14.0,30.29,NW,319,14.0,-999.0,90,-99.99,,,-99.99,,2013-03-12 14:42:00,
2013-03-12 09:52:00,15.0,13.0,30.30,NW,312,12.0,-999.0,90,-99.99,,,-99.99,,2013-03-12 14:52:00,
2013-03-12 10:02:00,15.0,12.0,30.31,NW,310,12.0,-999.0,89,-99.99,,,-99.99,,2013-03-12 15:02:00,
2013-03-12 10:12:00,15.0,12.0,30.31,NW,310,12.0,-999.0,89,-99.99,,,-99.99,,2013-03-12 15:12:00,
2013-03-12 10:22:00,15.0,12.0,30.31,NW,310,12.0,-999.0,89,-99.99,,,-99.99,,2013-03-12 15:22:00,
2013-03-12 10:32:00,13.0,10.0,30.32,NW,323,14.0,-999.0,87,-99.99,,,-99.99,,2013-03-12 15:32:00,
2013-03-12 10:43:00,13.0,10.0,30.32,NW,323,14.0,-999.0,87,-99.99,,,-99.99,,2013-03-12 15:43:00,
2013-03-12 10:53:00,13.0,10.0,30.32,NNW,327,14.0,-999.0,86,-99.99,,,-99.99,,2013-03-12 15:53:00,
2013-03-12 11:02:00,14.0,11.0,30.33,NW,314,14.0,-999.0,86,-99.99,,,-99.99,,2013-03-12 16:02:00,
2013-03-12 11:12:00,14.0,11.0,30.33,NW,314,14.0,-999.0,86,-99.99,,,-99.99,,2013-03-12 16:12:00,
2013-03-12 11:22:00,13.0,9.0,30.33,NW,315,13.0,-999.0,85,-99.99,,,-99.99,,2013-03-12 16:22:00,
2013-03-12 11:33:00,13.0,9.0,30.35,NW,326,13.0,-999.0,85,-99.99,,,-99.99,,2013-03-12 16:33:00,
2013-03-12 11:43:00,13.0,9.0,30.35,NW,326,13.0,-999.0,85,-99.99,,,-99.99,,2013-03-12 16:43:00,
2013-03-12 11:52:00,13.0,9.0,30.35,NNW,334,13.0,-999.0,85,-99.99,,,-99.99,,2013-03-12 16:52:00,
2013-03-12 12:02:00,14.0,10.0,30.35,NW,321,13.0,-999.0,85,-99.99,,,-99.99,,2013-03-12 17:02:00,
2013-03-12 12:13:00,14.0,10.0,30.35,NW,321,13.0,-999.0,85,-99.99,,,-99.99,,2013-03-12 17:13:00,
2013-03-12 12:22:00,14.0,10.0,30.35,NNW,330,13.0,-999.0,84,-99.99,,,-99.99,,2013-03-12 17:22:00,
2013-03-12 12:33:00,14.0,10.0,30.36,NW,322,14.0,-999.0,85,-99.99,,,-99.99,,2013-03-12 17:33:00,
2013-03-12 12:43:00,14.0,10.0,30.36,NW,322,14.0,-999.0,85,-99.99,,,-99.99,,2013-03-12 17:43:00,
2013-03-12 12:53:00,14.0,10.0,30.37,NW,317,12.0,-999.0,84,-99.99,,,-99.99,,2013-03-12 17:53:00,
2013-03-12 13:02:00,15.0,11.0,30.36,NW,326,12.0,-999.0,84,-99.99,,,-99.99,,2013-03-12 18:02:00,
2013-03-12 13:13:00,15.0,11.0,30.37,NW,314,12.0,-999.0,83,-99.99,,,-99.99,,2013-03-12 18:13:00,
2013-03-12 13:23:00,15.0,11.0,30.37,NW,314,12.0,-999.0,83,-99.99,,,-99.99,,2013-03-12 18:23:00,
2013-03-12 13:33:00,15.0,11.0,30.37,NNW,327,13.0,-999.0,83,-99.99,,,-99.99,,2013-03-12 18:33:00,
2013-03-12 13:42:00,15.0,11.0,30.37,NNW,327,13.0,-999.0,83,-99.99,,,-99.99,,2013-03-12 18:42:00,
2013-03-12 13:53:00,15.0,11.0,30.37,NW,306,11.0,-999.0,82,-99.99,,,-99.99,,2013-03-12 18:53:00,
2013-03-12 14:03:00,15.0,11.0,30.37,NW,313,10.0,-999.0,82,-99.99,,,-99.99,,2013-03-12 19:03:00,
2013-03-12 14:13:00,15.0,11.0,30.37,NW,313,10.0,-999.0,82,-99.99,,,-99.99,,2013-03-12 19:13:00,
2013-03-12 14:22:00,15.0,11.0,30.37,NW,313,9.0,-999.0,82,-99.99,,,-99.99,,2013-03-12 19:22:00,
2013-03-12 14:33:00,15.0,11.0,30.37,NW,304,8.0,-999.0,82,-99.99,,,-99.99,,2013-03-12 19:33:00,
2013-03-12 14:43:00,15.0,11.0,30.37,NW,304,8.0,-999.0,82,-99.99,,,-99.99,,2013-03-12 19:43:00,
2013-03-12 14:53:00,15.0,11.0,30.37,NW,311,9.0,-999.0,82,-99.99,,,-99.99,,2013-03-12 19:53:00,
2013-03-12 15:02:00,15.0,10.0,30.38,NW,304,9.0,-999.0,81,-99.99,,,-99.99,,2013-03-12 20:02:00,
2013-03-12 15:12:00,15.0,10.0,30.38,NW,304,9.0,-999.0,81,-99.99,,,-99.99,,2013-03-12 20:12:00,
2013-03-12 15:22:00,15.0,10.0,30.38,WNW,300,10.0,-999.0,81,-99.99,,,-99.99,,2013-03-12 20:22:00,
2013-03-12 15:32:00,15.0,10.0,30.38,NW,307,11.0,-999.0,81,-99.99,,,-99.99,,2013-03-12 20:32:00,
2013-03-12 15:42:00,15.0,10.0,30.38,NW,307,11.0,-999.0,81,-99.99,,,-99.99,,2013-03-12 20:42:00,
2013-03-12 15:52:00,15.0,10.0,30.38,WNW,298,10.0,-999.0,81,-99.99,,,-99.99,,2013-03-12 20:52:00,
2013-03-12 16:02:00,15.0,10.0,30.38,WNW,298,10.0,-999.0,81,-99.99,,,-99.99,,2013-03-12 21:02:00,
2013-03-12 16:12:00,15.0,10.0,30.38,WNW,298,10.0,-999.0,81,-99.99,,,-99.99,,2013-03-12 21:12:00,
2013-03-12 16:22:00,16.0,11.0,30.38,NW,306,9.0,-999.0,81,-99.99,,,-99.99,,2013-03-12 21:22:00,
2013-03-12 16:32:00,16.0,11.0,30.38,WNW,299,9.0,-999.0,81,-99.99,,,-99.99,,2013-03-12 21:32:00,
2013-03-12 16:43:00,16.0,11.0,30.38,WNW,299,9.0,-999.0,81,-99.99,,,-99.99,,2013-03-12 21:43:00,
2013-03-12 16:52:00,16.0,11.0,30.37,WNW,295,10.0,-999.0,81,-99.99,,,-99.99,,2013-03-12 21:52:00,
2013-03-12 17:02:00,16.0,11.0,30.37,WNW,295,10.0,-999.0,81,-99.99,,,-99.99,,2013-03-12 22:02:00,
2013-03-12 17:12:00,16.0,11.0,30.37,WNW,295,10.0,-999.0,81,-99.99,,,-99.99,,2013-03-12 22:12:00,
2013-03-12 17:22:00,16.0,11.0,30.38,NW,304,8.0,-999.0,81,-99.99,,,-99.99,,2013-03-12 22:22:00,
2013-03-12 17:33:00,16.0,11.0,30.38,NW,306,9.0,-999.0,80,-99.99,,,-99.99,,2013-03-12 22:33:00,
2013-03-12 17:42:00,16.0,11.0,30.38,NW,306,9.0,-999.0,80,-99.99,,,-99.99,,2013-03-12 22:42:00,
2013-03-12 17:52:00,16.0,10.0,30.39,NW,309,9.0,-999.0,78,-99.99,,,-99.99,,2013-03-12 22:52:00,
2013-03-12 18:02:00,16.0,10.0,30.38,NW,311,7.0,-999.0,78,-99.99,,,-99.99,,2013-03-12 23:02:00,
2013-03-12 18:12:00,16.0,10.0,30.38,NW,311,7.0,-999.0,78,-99.99,,,-99.99,,2013-03-12 23:12:00,
2013-03-12 18:22:00,16.0,11.0,30.37,NW,311,5.0,-999.0,79,-99.99,,,-99.99,,2013-03-12 23:22:00,
2013-03-12 18:34:00,15.0,10.0,30.38,NW,304,5.0,-999.0,79,-99.99,,,-99.99,,2013-03-12 23:34:00,
2013-03-12 18:43:00,15.0,10.0,30.38,NW,304,5.0,-999.0,79,-99.99,,,-99.99,,2013-03-12 23:43:00,
2013-03-12 18:52:00,15.0,10.0,30.38,NW,304,4.0,-999.0,80,-99.99,,,-99.99,,2013-03-12 23:52:00,
2013-03-12 19:02:00,14.0,9.0,30.38,WNW,302,3.0,-999.0,80,-99.99,,,-99.99,,2013-03-13 00:02:00,
2013-03-12 19:12:00,14.0,9.0,30.38,WNW,302,3.0,-999.0,80,-99.99,,,-99.99,,2013-03-13 00:12:00,
2013-03-12 19:23:00,14.0,9.0,30.37,WNW,302,3.0,-999.0,80,-99.99,,,-99.99,,2013-03-13 00:23:00,
2013-03-12 19:33:00,12.0,7.0,30.38,WNW,302,3.0,-999.0,81,-99.99,,,-99.99,,2013-03-13 00:33:00,
2013-03-12 19:42:00,12.0,7.0,30.38,WNW,302,3.0,-999.0,81,-99.99,,,-99.99,,2013-03-13 00:42:00,
2013-03-12 19:52:00,11.0,7.0,30.37,WNW,302,3.0,-999.0,82,-99.99,,,-99.99,,2013-03-13 00:52:00,
2013-03-12 20:03:00,9.0,4.0,30.37,WNW,302,0.0,-999.0,80,-99.99,,,-99.99,,2013-03-13 01:03:00,
2013-03-12 20:12:00,9.0,4.0,30.37,WNW,302,0.0,-999.0,80,-99.99,,,-99.99,,2013-03-13 01:12:00,
2013-03-12 20:22:00,7.0,3.0,30.37,WNW,302,0.0,-999.0,82,-99.99,,,-99.99,,2013-03-13 01:22:00,
2013-03-12 20:32:00,3.0,-1.0,30.38,WNW,302,0.0,-999.0,82,-99.99,,,-99.99,,2013-03-13 01:32:00,
2013-03-12 20:42:00,3.0,-1.0,30.38,WNW,302,0.0,-999.0,82,-99.99,,,-99.99,,2013-03-13 01:42:00,
2013-03-12 20:52:00,1.0,-3.0,30.38,WNW,302,0.0,-999.0,84,-99.99,,,-99.99,,2013-03-13 01:52:00,
2013-03-12 21:02:00,1.0,-2.0,30.39,WNW,302,0.0,-999.0,85,-99.99,,,-99.99,,2013-03-13 02:02:00,
2013-03-12 21:12:00,1.0,-2.0,30.39,WNW,302,0.0,-999.0,85,-99.99,,,-99.99,,2013-03-13 02:12:00,
2013-03-12 21:22:00,0.0,-3.0,30.38,WNW,302,0.0,-999.0,86,-99.99,,,-99.99,,2013-03-13 02:22:00,
2013-03-12 21:32:00,-1.0,-4.0,30.38,WNW,302,0.0,-999.0,85,-99.99,,,-99.99,,2013-03-13 02:32:00,
2013-03-12 21:43:00,-1.0,-4.0,30.38,WNW,302,0.0,-999.0,85,-99.99,,,-99.99,,2013-03-13 02:43:00,
2013-03-12 21:52:00,-1.0,-4.0,30.37,WNW,302,0.0,-999.0,87,-99.99,,,-99.99,,2013-03-13 02:52:00,
2013-03-12 22:02:00,0.0,-2.0,30.38,WNW,302,0.0,-999.0,89,-99.99,,,-99.99,,2013-03-13 03:02:00,
2013-03-12 22:12:00,0.0,-2.0,30.38,WNW,302,0.0,-999.0,89,-99.99,,,-99.99,,2013-03-13 03:12:00,
2013-03-12 22:22:00,-1.0,-4.0,30.38,WNW,302,0.0,-999.0,88,-99.99,,,-99.99,,2013-03-13 03:22:00,
2013-03-12 22:32:00,-2.0,-5.0,30.38,WNW,302,0.0,-999.0,87,-99.99,,,-99.99,,2013-03-13 03:32:00,
2013-03-12 22:42:00,-2.0,-5.0,30.38,WNW,302,0.0,-999.0,87,-99.99,,,-99.99,,2013-03-13 03:42:00,
2013-03-12 22:52:00,-3.0,-6.0,30.38,WNW,302,0.0,-999.0,87,-99.99,,,-99.99,,2013-03-13 03:52:00,
2013-03-12 23:03:00,-5.0,-8.0,30.39,WNW,302,0.0,-999.0,86,-99.99,,,-99.99,,2013-03-13 04:03:00,
2013-03-12 23:13:00,-5.0,-8.0,30.39,WNW,302,0.0,-999.0,86,-99.99,,,-99.99,,2013-03-13 04:13:00,
2013-03-12 23:22:00,-6.0,-9.0,30.39,WNW,302,0.0,-999.0,86,-99.99,,,-99.99,,2013-03-13 04:22:00,
2013-03-12 23:32:00,-7.0,-10.0,30.39,WNW,302,0.0,-999.0,86,-99.99,,,-99.99,,2013-03-13 04:32:00,
2013-03-12 23:42:00,-7.0,-10.0,30.39,WNW,302,0.0,-999.0,86,-99.99,,,-99.99,,2013-03-13 04:42:00,
2013-03-12 23:52:00,-7.0,-10.0,30.40,WNW,302,0.0,-999.0,86,-99.99,,,-99.99,,2013-03-13 04:52:00,